Regional Weather Roundup
Issued by NWS

Home | Current Version | Previous Version | Graphics & Text | Print | Product List | Glossary Off
Versions: 1 2 3 4 5 6 7 8 9 10 11 12 13 14 15 16 17 18 19 20 21 22 23 24 25 26 27 28 29 30 31 32 33 34 35 36 37 38 39 40 41 42 43 44 45 46 47 48 49 50

000
ASUS43 KTOP 270259
RWRKS

WEATHER ROUNDUP FOR KANSAS
NATIONAL WEATHER SERVICE GOODLAND KS
1000 PM CDT MON JUN 26 2017

NOTE:  "FAIR" INDICATES FEW OR NO CLOUDS BELOW 12,000 FEET WITH NO
SIGNIFICANT WEATHER AND/OR OBSTRUCTIONS TO VISIBILITY.

KSZ001>006-013>018-027>032-041>047-270400-
NORTHWEST KANSAS

CITY           SKY/WX    TMP DP  RH WIND       PRES   REMARKS
GOODLAND       MOCLDY    67  61  81 E7        30.11R
HAYS           CLEAR     71  61  70 E13       30.06R
HILL CITY      CLEAR     70  59  68 E10       30.09R
RUSSELL        CLEAR     68  61  78 E9        30.05R
$$

KSZ061>065-074>080-084>089-270400-
SOUTHWEST KANSAS

CITY           SKY/WX    TMP DP  RH WIND       PRES   REMARKS
DODGE CITY     MOCLDY    73  63  70 SE8       30.05R
ELKHART          N/A     70  51  51 E8          N/A
GARDEN CITY    CLOUDY    76  60  57 SE7       30.05R
GREAT BEND     PTCLDY    74  61  63 NE16      30.05R
LIBERAL        CLOUDY    77  63  61 E12       30.06R
$$

KSZ066>073-081>083-090>101-270400-
SOUTHEAST KANSAS

CITY           SKY/WX    TMP DP  RH WIND       PRES   REMARKS
CHANUTE        CLOUDY    71  63  75 N15       30.10R
COFFEYVILLE    PTCLDY    71  64  78 E6        30.03S
HUTCHINSON     PTCLDY    69  60  73 E13       30.04R
MEDICINE LODGE   N/A     79  61  53 SE8       30.00S
NEWTON         MOCLDY    65  64  97 SE10      30.07R
PARSONS        CLOUDY    71  64  78 VRB3      30.05S
WICHITA INTL   LGT RAIN  68  65  90 E16       30.05R
WICHITA JABRA  CLOUDY    66  61  84 E9        30.07R
WICHITA MCCONL LGT RAIN  70  61  73 SE13      30.06R
WINFIELD       MOCLDY    77  59  53 N32G40    30.08R SQUALL  THUNDER
$$

KSZ007>012-019>026-033>040-048>060-102>105-270400-
NORTHEAST KANSAS

CITY           SKY/WX    TMP DP  RH WIND       PRES   REMARKS
CONCORDIA      CLEAR     65  62  90 E6        30.10R
EMPORIA        CLOUDY    65  60  84 E15       30.07F
LAWRENCE       CLEAR     60  60 100 CALM      30.11R FOG
MANHATTAN      CLEAR     65  61  87 NE5       30.09R
OLATHE IND     PTCLDY    63  58  83 SE5       30.12R
OLATHE EXE     PTCLDY    63  58  83 SE3       30.11R
SALINA         CLEAR     72  62  71 E17G23    30.06R
TOPEKA BILLARD CLEAR     63  63 100 SE3       30.11R
TOPEKA FORBES  CLEAR     63  62  97 E5        30.11R
$$




USA.gov is the U.S. government's official web portal to all federal, state and local government web resources and services.